Wind_Speed
7 8 9 9 9 11 12 14 16 16 15 15 16 17 20 18 16 16 15 17 20 20 20 21 22 22 21 20 20 21 21 20 20 20 21 21 21 21 21 20 21 21 21 21
7 9 10 10 11 12 13 14 16 15 15 16 16 16 19 17 16 17 18 18 19 19 20 19 20 21 22 22 21 21 20 20 21 20 20 21 21 21 21 21 21 20 21 21
8 9 11 13 13 13 13 15 16 15 15 16 15 17 17 16 16 17 18 19 19 20 20 20 20 20 20 20 21 21 20 20 20 20 20 21 19 19 19 19 20 20 20 20
9 9 11 12 12 13 14 14 15 15 14 14 13 16 16 16 16 16 17 19 20 20 20 19 19 19 19 20 20 20 20 20 20 19 19 19 18 18 19 20 20 20 21 21
9 9 10 12 13 14 14 14 14 14 15 15 13 16 17 17 16 16 18 19 20 20 20 19 20 19 19 20 20 19 20 20 20 19 19 19 19 19 19 20 20 21 22 22
9 8 9 11 13 13 13 13 14 14 14 15 12 14 18 19 17 17 18 19 20 21 22 21 21 20 20 19 20 19 19 19 20 20 20 20 20 19 20 20 21 21 21 22
10 10 9 10 10 10 12 13 14 13 13 14 12 15 19 19 16 17 17 17 19 20 21 22 21 20 20 18 19 18 18 20 20 20 20 20 20 20 20 21 21 21 21 21
10 11 11 10 10 12 12 12 13 14 14 14 12 14 16 18 19 18 16 17 18 19 19 20 19 18 17 17 18 18 18 19 19 19 19 19 19 20 21 20 20 20 21 21
11 12 11 10 10 11 11 11 12 14 15 14 13 14 16 18 18 17 18 18 17 17 19 19 18 18 17 17 17 17 18 18 17 17 17 18 19 19 18 19 19 20 21 21
12 11 11 11 11 9 10 11 12 12 13 13 13 14 17 18 16 16 16 17 19 18 19 19 18 18 18 17 16 16 16 17 17 17 17 17 18 18 18 19 19 20 20 20
11 11 9 10 9 10 11 10 13 13 12 13 16 17 18 19 18 16 16 16 17 17 18 17 16 16 17 17 16 17 17 17 17 17 17 17 17 17 18 18 18 19 19 19
9 9 9 8 7 9 10 10 12 14 13 12 15 17 15 17 19 19 17 16 16 16 16 16 16 16 16 16 16 16 16 17 17 16 16 16 16 16 17 17 17 17 17 17
9 9 9 8 7 8 9 10 11 11 12 11 12 16 16 17 17 17 16 16 17 17 15 15 15 15 15 15 15 15 15 15 15 16 16 15 15 16 17 17 16 16 16 16
8 9 10 9 8 9 9 8 7 8 10 11 11 14 15 15 14 14 14 15 16 17 16 14 13 13 13 14 14 14 14 14 14 14 14 15 15 15 16 16 15 15 15 16
8 8 9 9 8 8 8 6 6 7 8 9 10 13 14 14 14 14 14 15 15 15 14 13 13 13 14 14 14 14 14 13 13 13 13 14 14 15 14 14 14 14 14 14
8 8 9 8 8 7 6 5 6 7 9 10 10 11 13 14 15 14 13 14 15 14 14 14 14 14 14 13 13 13 12 12 12 12 13 13 14 14 13 12 12 13 13 14
9 9 9 9 8 6 6 6 8 8 9 12 12 12 13 14 14 14 14 14 14 14 13 13 13 12 11 11 10 10 11 12 11 11 12 12 12 12 12 12 12 12 12 13
10 10 10 9 8 5 6 7 9 9 10 11 11 12 13 14 13 14 14 13 13 13 13 12 11 10 9 9 9 8 9 9 9 10 10 10 11 11 11 10 10 11 12 13
9 9 9 9 8 7 8 9 10 10 10 11 11 12 12 11 11 11 12 12 12 12 12 10 9 8 8 7 7 7 7 7 7 8 8 9 10 9 8 8 9 11 12 13
9 9 8 8 8 8 8 9 9 9 10 10 11 12 11 11 10 10 11 11 10 10 10 9 8 7 7 6 6 5 5 6 6 7 7 8 8 7 7 8 9 10 12 13
10 9 9 8 8 9 8 9 10 10 9 10 11 11 11 11 11 11 10 10 9 9 9 8 6 6 6 6 5 5 5 6 6 6 6 6 7 7 7 8 9 10 12 13
9 9 9 9 9 10 9 10 10 10 10 11 10 11 11 10 9 10 9 9 9 9 8 8 7 6 6 5 5 4 5 5 5 5 6 6 7 7 8 9 9 10 12 13
9 9 9 9 10 10 10 10 10 10 10 10 10 10 10 9 9 9 8 8 8 8 7 6 6 6 5 5 5 5 5 5 5 5 6 7 7 8 9 10 11 11 13 14
10 9 9 10 10 9 11 10 9 10 10 9 10 10 9 8 8 8 7 6 7 7 7 6 5 5 5 5 5 4 5 5 5 5 6 7 7 8 9 10 11 12 13 14
11 10 10 10 10 11 11 10 10 10 10 9 9 9 8 7 8 8 7 6 6 6 7 6 6 5 5 5 4 4 4 4 5 5 6 7 8 9 9 10 11 12 13 14
11 11 11 11 11 11 10 10 10 10 10 10 9 8 8 8 8 7 7 6 6 6 6 6 6 5 4 4 4 4 4 4 5 6 6 7 8 9 9 10 11 12 14 15
Wind_Direction
304 288 278 269 263 266 264 265 264 264 261 261 265 270 271 272 274 277 277 277 278 277 277 275 274 275 276 275 275 274 274 275 278 280 280 281 280 283 284 287 290 291 293 294
290 279 275 263 257 258 263 265 266 265 265 267 272 268 270 270 273 280 280 277 281 280 277 276 275 277 275 273 276 276 275 274 276 278 282 281 280 282 283 285 288 291 294 294
283 282 276 269 264 257 263 269 273 272 267 271 279 277 276 274 271 273 276 276 277 278 279 280 277 279 280 276 274 272 273 274 274 277 280 280 280 283 286 288 289 292 295 297
286 276 273 271 269 263 267 272 275 277 278 274 272 277 274 276 271 271 278 275 272 276 279 280 277 276 276 275 271 270 271 272 272 274 277 279 282 287 289 288 289 292 295 297
299 284 277 276 270 266 272 277 277 275 280 273 265 273 273 278 274 274 275 278 275 276 280 280 278 276 275 273 268 269 272 273 273 274 275 278 281 286 288 287 288 291 294 295
311 302 290 279 279 278 272 277 277 276 280 275 270 268 269 267 266 270 275 276 279 280 282 281 279 274 271 268 266 267 270 271 273 274 273 276 280 285 286 288 289 291 293 295
317 307 289 280 282 285 281 275 279 281 273 271 267 267 270 274 275 276 278 279 280 282 282 281 279 272 267 262 262 264 266 268 272 273 274 278 281 283 285 288 289 291 293 295
313 299 296 293 287 287 281 274 279 282 280 276 274 268 273 284 286 288 288 286 284 280 281 284 283 275 267 262 262 262 265 269 273 277 279 279 280 281 283 286 288 290 292 294
307 305 301 295 291 284 281 273 273 277 282 279 277 278 279 280 283 286 289 289 289 290 288 287 283 278 271 270 269 266 269 270 275 279 280 280 281 284 286 286 289 290 292 295
304 305 307 304 296 290 282 280 276 282 282 275 276 275 275 282 286 287 287 289 290 291 292 291 285 279 277 278 276 275 275 273 276 276 276 279 280 281 287 290 290 292 294 294
307 306 308 307 303 296 286 274 274 274 275 274 277 282 287 287 294 292 291 292 293 292 291 287 286 289 284 281 279 278 278 279 279 278 280 280 281 284 289 293 295 296 295 295
323 319 311 311 298 289 287 282 274 271 273 281 284 288 292 291 292 293 291 294 295 297 291 286 287 289 285 282 280 280 281 281 280 280 283 285 281 284 287 293 296 298 298 297
326 321 317 315 305 296 296 294 284 279 275 279 288 288 293 296 296 296 298 299 297 298 297 292 287 289 285 281 280 282 281 280 281 281 285 288 287 288 291 294 294 297 300 302
319 316 320 322 313 310 310 306 294 288 286 284 290 294 295 301 303 301 303 306 305 302 301 298 290 292 291 285 282 282 283 281 282 285 289 292 292 290 293 293 292 294 299 301
328 322 323 323 317 304 310 326 320 303 299 291 299 303 305 313 312 313 313 315 313 310 308 302 298 294 293 291 284 281 280 281 283 289 293 294 295 294 296 295 297 302 301 300
327 327 327 322 323 311 312 321 310 303 304 305 304 313 310 309 313 315 317 318 316 313 308 304 301 294 292 289 281 277 275 280 285 290 294 295 296 298 301 302 301 300 301 302
326 329 332 329 326 327 321 317 301 295 299 301 307 315 314 314 313 314 317 321 320 316 312 309 304 299 295 292 286 279 276 279 284 290 294 296 298 299 305 305 304 304 306 309
326 333 332 335 322 327 331 313 302 300 305 308 309 309 311 312 314 316 320 324 325 321 317 315 310 303 298 291 286 281 280 283 284 288 294 301 305 305 308 310 309 312 314 316
318 320 328 336 334 328 320 311 304 300 302 318 322 312 311 311 316 317 321 324 326 326 324 320 318 313 308 300 296 290 289 291 295 299 303 304 303 307 315 320 317 319 322 322
321 319 317 320 326 327 325 318 310 306 307 320 322 323 319 315 319 322 324 324 326 328 327 325 322 317 318 316 314 309 312 313 311 312 316 320 317 316 321 322 324 324 326 326
317 316 315 318 322 325 326 325 319 314 315 321 320 322 324 323 327 328 330 331 331 333 334 334 332 329 331 331 330 327 324 320 319 321 326 327 331 331 327 324 326 329 330 331
315 312 306 310 317 323 319 322 320 321 322 322 319 318 324 326 325 329 333 335 336 338 340 331 328 340 347 352 356 352 343 337 338 335 334 335 333 334 332 329 330 331 331 333
312 308 302 302 312 321 320 318 317 321 324 327 324 322 323 323 324 328 331 336 339 345 345 343 336 339 350 356 355 352 349 345 345 338 339 338 336 335 334 333 333 333 334 335
311 306 303 301 306 314 315 320 316 318 320 326 326 324 327 328 327 329 333 336 340 346 347 347 339 336 342 345 343 344 349 352 354 344 340 341 340 338 337 337 337 337 337 337
309 301 295 295 299 302 307 313 312 312 317 317 317 320 326 330 329 331 334 334 335 342 347 351 349 344 339 340 345 347 349 353 350 344 342 342 339 337 337 338 340 341 341 341
302 298 295 297 296 301 303 303 304 305 310 314 315 311 314 320 325 328 326 329 330 338 345 349 351 348 348 354 354 348 344 345 342 338 340 341 341 340 339 341 341 341 341 340
Height
5830 5830 5830 5832 5833 5834 5834 5834 5834 5835 5834 5834 5834 5834 5832 5831 5831 5831 5830 5830 5829 5828 5827 5825 5825 5824 5823 5824 5825 5825 5825 5825 5825 5825 5824 5824 5824 5823 5823 5823 5822 5821 5821 5820
5830 5830 5830 5830 5830 5831 5831 5831 5831 5830 5830 5830 5829 5828 5828 5827 5828 5827 5827 5827 5824 5824 5823 5822 5821 5821 5820 5819 5820 5820 5821 5820 5820 5820 5820 5820 5819 5819 5818 5818 5818 5817 5817 5816
5828 5828 5827 5827 5827 5827 5827 5827 5827 5826 5827 5826 5826 5825 5823 5824 5823 5823 5822 5820 5820 5819 5819 5817 5816 5816 5815 5814 5815 5815 5816 5816 5816 5816 5815 5815 5815 5815 5814 5814 5814 5813 5813 5812
5825 5825 5824 5824 5824 5824 5824 5824 5823 5822 5822 5822 5824 5822 5820 5819 5818 5817 5816 5815 5815 5815 5812 5811 5810 5811 5811 5810 5810 5810 5811 5811 5811 5811 5811 5811 5811 5810 5810 5810 5809 5809 5808 5808
5822 5822 5821 5820 5820 5820 5820 5821 5820 5819 5819 5819 5820 5819 5817 5815 5814 5812 5812 5811 5811 5811 5809 5808 5806 5806 5806 5805 5805 5806 5806 5807 5807 5807 5807 5807 5807 5806 5806 5805 5805 5804 5803 5803
5820 5819 5818 5817 5817 5817 5817 5817 5816 5816 5816 5816 5816 5817 5815 5812 5810 5809 5808 5807 5807 5806 5804 5803 5802 5801 5801 5801 5801 5801 5802 5802 5802 5802 5802 5802 5802 5802 5802 5801 5801 5800 5799 5798
5818 5817 5816 5815 5814 5813 5813 5814 5813 5812 5812 5813 5814 5813 5810 5808 5806 5805 5805 5804 5804 5802 5800 5799 5797 5796 5797 5796 5796 5797 5797 5797 5796 5797 5797 5797 5797 5798 5797 5797 5796 5795 5795 5794
5816 5815 5813 5812 5810 5809 5809 5810 5810 5809 5809 5809 5809 5808 5806 5804 5803 5801 5801 5800 5799 5797 5795 5794 5793 5792 5792 5792 5792 5792 5793 5792 5792 5791 5791 5792 5792 5793 5793 5792 5791 5790 5789 5789
5813 5812 5811 5808 5807 5807 5807 5807 5807 5806 5805 5806 5806 5805 5802 5799 5798 5797 5797 5797 5796 5792 5791 5790 5789 5788 5788 5788 5787 5788 5788 5788 5788 5787 5787 5788 5788 5788 5788 5787 5786 5785 5784 5784
5809 5809 5808 5806 5805 5805 5804 5803 5803 5802 5801 5802 5802 5801 5798 5794 5794 5794 5794 5793 5792 5790 5788 5786 5785 5785 5784 5784 5784 5784 5784 5785 5784 5784 5784 5784 5784 5784 5783 5782 5781 5780 5779 5778
5807 5806 5805 5804 5802 5802 5801 5801 5800 5799 5798 5799 5798 5800 5795 5792 5792 5791 5789 5789 5788 5787 5785 5783 5781 5781 5781 5780 5780 5781 5781 5781 5780 5780 5780 5780 5780 5780 5779 5778 5777 5776 5775 5774
5804 5804 5802 5802 5800 5799 5797 5797 5797 5796 5796 5796 5796 5797 5791 5789 5789 5787 5785 5785 5784 5783 5781 5779 5778 5777 5776 5776 5776 5777 5777 5777 5777 5777 5777 5776 5776 5776 5775 5774 5773 5772 5770 5769
5802 5801 5800 5799 5800 5798 5796 5795 5795 5795 5794 5794 5793 5793 5789 5787 5786 5784 5782 5782 5780 5779 5778 5777 5775 5774 5773 5772 5773 5773 5773 5774 5773 5773 5773 5773 5772 5772 5771 5770 5769 5768 5767 5765
5801 5800 5799 5798 5796 5794 5793 5793 5793 5793 5792 5791 5791 5789 5787 5785 5783 5782 5780 5779 5777 5776 5775 5774 5773 5772 5770 5769 5769 5770 5770 5770 5770 5770 5770 5769 5769 5769 5768 5767 5765 5764 5763 5762
5799 5798 5797 5795 5794 5793 5792 5792 5792 5791 5790 5790 5788 5787 5784 5783 5781 5778 5777 5776 5774 5773 5772 5771 5770 5768 5767 5766 5766 5766 5767 5767 5767 5767 5767 5766 5766 5765 5764 5763 5762 5760 5759 5758
5798 5797 5795 5794 5793 5791 5792 5791 5791 5790 5789 5788 5787 5785 5783 5781 5779 5778 5776 5774 5773 5771 5770 5768 5767 5765 5764 5764 5763 5763 5764 5764 5764 5764 5763 5763 5762 5762 5761 5760 5759 5757 5756 5755
5797 5796 5794 5794 5792 5792 5792 5791 5790 5789 5788 5786 5784 5783 5781 5779 5778 5776 5774 5772 5771 5769 5768 5766 5764 5763 5762 5761 5760 5760 5761 5761 5761 5761 5761 5760 5760 5759 5758 5757 5756 5755 5754 5752
5796 5795 5794 5793 5792 5791 5793 5790 5789 5787 5786 5784 5782 5781 5780 5778 5776 5774 5773 5771 5769 5767 5765 5764 5762 5760 5759 5759 5758 5758 5758 5759 5759 5759 5758 5758 5757 5757 5756 5755 5754 5753 5751 5750
5796 5794 5793 5792 5790 5790 5790 5789 5788 5786 5784 5782 5781 5780 5778 5777 5776 5774 5772 5770 5768 5766 5764 5762 5761 5760 5759 5758 5757 5757 5757 5757 5757 5757 5756 5756 5755 5754 5754 5753 5752 5751 5749 5747
5795 5794 5793 5791 5790 5790 5790 5787 5785 5786 5784 5782 5780 5779 5777 5776 5775 5774 5771 5769 5767 5765 5763 5762 5760 5759 5758 5757 5756 5756 5756 5756 5756 5755 5755 5754 5753 5753 5752 5752 5751 5749 5747 5745
5794 5793 5792 5791 5789 5788 5788 5786 5785 5785 5783 5781 5779 5778 5776 5775 5774 5772 5770 5768 5766 5765 5763 5762 5760 5759 5758 5757 5756 5756 5756 5755 5755 5755 5754 5753 5753 5752 5751 5750 5749 5747 5745 5743
5792 5792 5791 5790 5789 5789 5787 5786 5785 5783 5781 5779 5779 5777 5776 5774 5773 5771 5769 5767 5766 5764 5763 5761 5760 5758 5757 5756 5756 5756 5755 5755 5755 5754 5753 5753 5752 5751 5750 5749 5748 5746 5744 5741
5791 5791 5789 5789 5790 5787 5786 5784 5783 5781 5780 5779 5778 5777 5775 5773 5772 5771 5769 5767 5766 5764 5763 5762 5760 5759 5758 5757 5757 5756 5756 5755 5754 5754 5753 5752 5751 5750 5749 5748 5746 5744 5742 5739
5790 5789 5788 5787 5787 5786 5784 5783 5782 5781 5780 5779 5777 5776 5774 5773 5772 5770 5769 5767 5766 5765 5763 5762 5761 5760 5759 5758 5757 5756 5756 5755 5754 5754 5753 5752 5751 5749 5748 5747 5745 5742 5740 5738
5789 5787 5787 5786 5786 5785 5784 5782 5781 5780 5779 5778 5777 5775 5774 5773 5772 5770 5769 5767 5766 5765 5764 5762 5761 5760 5759 5758 5758 5757 5756 5755 5755 5754 5753 5751 5750 5749 5747 5745 5743 5741 5739 5736
5786 5786 5785 5784 5784 5783 5782 5781 5780 5779 5778 5777 5776 5775 5773 5772 5771 5770 5768 5767 5766 5765 5764 5763 5761 5760 5759 5759 5758 5757 5756 5756 5755 5754 5752 5751 5750 5748 5746 5744 5742 5740 5738 5735